Weather History for Portland Troutdale, OR

Change the Weather History Date:

Sunday, June 23, 2013

  Actual Average Record
Temperature  
Mean Temperature 66 °F 64 °F  
Max Temperature 70 °F 76 °F 104 °F (1992)
Min Temperature 62 °F 51 °F 45 °F (1985)
Degree Days  
Heating Degree Days 0 3  
Month to date heating degree days 43 100  
Cooling Degree Days 1 2  
Month to date cooling degree days 17 28  
Growing Degree Days 16 (Base 50)    
Moisture  
Dew Point 59 °F    
Average Humidity 80    
Maximum Humidity 93    
Minimum Humidity 66    
Precipitation  
Precipitation 0.12 in 0.06 in 0.61 in (1969)
Month to date precipitation 1.23 2.07  
Year to date precipitation 16.06 24.77  
Snow  
Snow 0.00 in - - ()
Month to date snowfall 0.0  
Since 1 June snowfall 0.0  
Snow Depth 0.00 in    
Sea Level Pressure  
Sea Level Pressure 29.72 in    
Wind  
Wind Speed 2 mph (East)    
Max Wind Speed 12 mph    
Max Gust Speed 14 mph    
Visibility 10 miles    
Events Rain    
T = Trace of Precipitation, MM = Missing Value Source: NWS Daily Summary

Daily Weather History Graph

Daily Weather History Graph

Search for Another Location

Airport:

Trip Planner

Search our weather history database for the weather conditions in past years. The results will help you decide how hot, cold, wet, or windy it might be!

Date:

Astronomy

Jun. 23, 2013 Rise Set
Actual Time 5:21 AM PDT 9:02 PM PDT
Civil Twilight 4:43 AM PDT 9:40 PM PDT
Nautical Twilight 3:52 AM PDT 10:31 PM PDT
Astronomical Twilight 2:42 AM PDT 11:40 PM PDT
Moon 9:14 PM PDT (6/23) 5:48 AM PDT (6/23)
Length of Visible Light 16h 57m
Length of Day
15h 41m
Full, 100% of the Moon is Illuminated
Jun 23
Full
Jun 29
Last Quarter
Jul 8
New
Jul 15
First Quarter
Jul 22
Full

Hourly Weather History & Observations

Time (PDT) Temp. Dew Point Humidity Pressure Visibility Wind Dir Wind Speed Gust Speed Precip Events Conditions
12:53 AM 63.0 °F 57.0 °F 81% 29.83 in 10.0 mi SW 4.6 mph - N/A   Overcast
1:53 AM 63.0 °F 57.0 °F 81% 29.83 in 10.0 mi East 3.5 mph - N/A   Overcast
2:53 AM 64.0 °F 55.9 °F 75% 29.82 in 10.0 mi ESE 3.5 mph - N/A   Overcast
3:53 AM 63.0 °F 57.0 °F 81% 29.82 in 10.0 mi Calm Calm - N/A   Overcast
4:53 AM 63.0 °F 57.0 °F 81% 29.82 in 10.0 mi Calm Calm - 0.00 in Rain Light Rain
5:53 AM 62.1 °F 57.0 °F 84% 29.81 in 10.0 mi Calm Calm - 0.00 in   Overcast
6:53 AM 63.0 °F 57.0 °F 81% 29.79 in 10.0 mi Calm Calm - 0.00 in   Overcast
7:53 AM 63.0 °F 57.9 °F 84% 29.77 in 10.0 mi Calm Calm - N/A   Overcast
8:53 AM 64.0 °F 55.0 °F 73% 29.76 in 10.0 mi Calm Calm - 0.00 in   Overcast
9:53 AM 64.9 °F 55.9 °F 73% 29.75 in 10.0 mi NW 4.6 mph - N/A   Overcast
10:53 AM 66.0 °F 55.9 °F 70% 29.75 in 10.0 mi NW 3.5 mph - N/A   Overcast
11:53 AM 66.9 °F 57.9 °F 73% 29.74 in 10.0 mi Variable 3.5 mph - 0.00 in Rain Light Rain
12:53 PM 68.0 °F 57.9 °F 70% 29.71 in 10.0 mi Calm Calm - 0.02 in   Mostly Cloudy
1:53 PM 69.1 °F 57.9 °F 68% 29.70 in 10.0 mi NW 3.5 mph - N/A   Overcast
2:53 PM 69.1 °F 57.9 °F 68% 29.68 in 10.0 mi Calm Calm - 0.00 in Rain Light Rain
3:53 PM 69.1 °F 60.1 °F 73% 29.67 in 10.0 mi Calm Calm - 0.00 in Rain Light Rain
4:53 PM 69.1 °F 62.1 °F 78% 29.68 in 10.0 mi Calm Calm - 0.00 in   Overcast
5:20 PM 66.2 °F 62.6 °F 88% 29.66 in 10.0 mi East 4.6 mph - N/A   Overcast
5:35 PM 66.2 °F 60.8 °F 83% 29.66 in 10.0 mi East 6.9 mph - N/A   Overcast
5:53 PM 68.0 °F 61.0 °F 78% 29.65 in 10.0 mi East 8.1 mph - N/A   Mostly Cloudy
6:53 PM 66.9 °F 60.1 °F 79% 29.64 in 10.0 mi East 11.5 mph - N/A   Overcast
7:53 PM 66.0 °F 61.0 °F 84% 29.65 in 10.0 mi East 5.8 mph - 0.02 in Rain Light Rain
8:53 PM 64.9 °F 60.1 °F 84% 29.65 in 3.0 mi SSW 6.9 mph - 0.04 in Rain Light Rain
9:53 PM 63.0 °F 60.1 °F 90% 29.65 in 10.0 mi Calm Calm - 0.04 in   Overcast
10:53 PM 63.0 °F 60.1 °F 90% 29.65 in 10.0 mi Calm Calm - 0.00 in   Overcast
11:53 PM 62.1 °F 60.1 °F 93% 29.64 in 10.0 mi Calm Calm - N/A   Mostly Cloudy